Lid_Strength_Index
8 11 13 11 10 10 12 13 14 11 8 10 11 10 8 7 7 7 7 7 6 6 4 6 4 3 2 2 2 2 1 1 1 1 1 2 2 1 1 0 1 1 1 0
11 13 10 9 9 11 12 13 13 11 9 10 11 11 8 8 7 7 7 7 7 7 5 4 6 5 3 2 2 2 2 1 1 1 1 1 1 1 1 0 1 1 1 1
12 10 8 9 11 12 12 13 13 13 11 10 11 13 11 8 7 6 6 5 5 6 7 6 4 6 4 2 2 2 2 1 1 1 1 1 1 2 2 2 1 1 1 1
11 8 10 11 12 11 15 10 11 12 14 17 11 19 12 10 9 8 7 6 6 6 5 5 5 5 6 3 2 2 2 1 1 1 1 2 2 3 2 1 1 1 1 1
12 11 12 12 11 10 12 9 11 12 14 14 14 17 14 11 11 10 8 7 6 6 6 6 6 5 5 5 4 2 2 1 1 1 1 2 2 2 1 1 1 1 1 0
10 7 9 10 9 9 8 11 11 12 14 19 15 15 15 12 11 9 8 7 7 6 7 7 6 6 6 5 3 3 2 2 1 1 1 1 2 2 2 2 2 1 1 1
11 11 9 8 11 9 10 13 19 20 20 20 13 15 13 11 9 9 9 8 7 7 7 7 7 7 6 5 5 3 3 3 2 2 1 1 1 2 2 2 2 2 2 1
16 18 11 9 11 12 12 13 18 22 21 19 15 17 14 9 9 8 8 8 8 8 8 8 8 7 7 6 5 4 4 3 3 2 2 1 1 1 1 1 1 1 1 1
16 16 9 9 9 10 13 15 11 16 19 19 16 13 11 10 10 9 9 8 9 9 9 9 9 8 8 8 6 6 4 4 3 2 2 2 1 1 1 1 1 1 1 1
12 17 11 10 9 9 11 10 16 16 21 22 18 16 15 12 11 9 9 10 9 9 10 9 9 9 8 8 7 7 6 5 4 3 2 2 1 1 1 1 2 2 1 1
10 13 14 11 13 14 13 14 13 14 16 20 20 17 10 10 9 10 9 9 10 10 9 9 9 9 8 9 8 8 8 7 6 4 3 3 2 2 2 1 1 2 2 1
10 12 16 14 10 9 10 12 13 17 19 16 17 17 8 9 9 8 8 8 9 10 9 8 8 8 7 8 8 9 9 8 7 6 4 3 3 2 2 2 2 1 2 2
10 14 18 17 13 11 13 12 12 12 14 17 19 16 9 9 9 8 8 8 8 7 7 7 8 8 8 8 8 9 9 9 8 7 5 4 3 3 2 2 2 2 2 2
8 12 15 18 15 12 14 13 12 13 17 16 16 14 10 9 10 8 7 7 7 7 7 7 8 9 9 8 8 8 9 9 9 7 7 5 4 3 3 2 2 3 2 2
9 15 13 12 11 11 12 12 12 13 13 15 13 13 10 9 9 8 7 6 7 7 7 7 8 9 9 9 8 8 8 9 9 8 7 6 5 4 3 3 3 3 3 3
9 15 12 14 11 11 13 12 12 11 11 11 11 12 8 8 8 7 7 7 8 7 7 7 7 7 8 7 7 7 8 8 9 9 9 7 6 6 6 6 5 5 5 5
11 13 15 18 14 13 16 13 12 11 10 11 14 10 8 8 8 8 7 7 7 7 7 7 7 6 6 6 6 7 7 7 9 10 10 10 10 10 9 10 9 9 8 8
12 13 14 18 16 21 12 9 9 10 9 8 9 8 8 8 8 7 7 8 8 7 7 7 7 7 7 6 6 6 6 7 9 10 11 12 12 12 11 11 10 10 10 9
9 12 15 17 20 14 12 10 11 11 11 8 9 8 8 8 9 9 8 8 8 8 8 8 8 8 7 7 7 7 7 8 9 9 10 11 12 13 12 12 10 10 11 11
9 10 13 16 20 22 13 10 8 8 14 10 8 10 10 9 12 12 10 9 9 9 9 9 9 9 9 8 8 9 10 10 9 9 9 10 12 13 13 11 11 12 12 12
14 13 15 16 17 16 11 9 8 15 14 12 11 12 12 12 13 12 10 11 10 10 10 11 11 11 10 9 10 11 11 11 10 9 9 10 11 11 11 12 10 12 12 13
15 15 16 15 19 21 9 10 13 14 13 14 14 15 15 15 13 13 13 13 12 13 12 12 13 12 11 11 11 12 12 10 10 10 10 10 10 11 12 11 11 12 12 12
16 12 15 14 15 12 13 15 16 16 16 16 17 16 16 16 16 16 15 15 14 14 14 13 13 14 13 12 12 13 12 11 11 11 11 11 11 12 12 11 11 11 12 11
13 11 14 13 14 13 16 17 18 17 18 18 18 18 17 18 18 18 17 17 17 16 15 15 16 16 16 14 14 12 13 14 13 13 12 11 12 11 11 11 11 11 12 12
15 12 14 13 18 16 16 18 18 18 18 19 18 18 19 18 19 19 18 18 17 17 17 17 17 17 16 15 15 17 16 15 14 13 13 12 12 12 12 12 11 11 11 11
20 22 17 19 21 21 18 19 18 20 21 20 20 20 19 19 19 18 19 18 19 19 19 19 18 18 18 19 20 20 18 15 16 15 14 13 12 11 12 12 12 11 10 10